Time,TemperatureF,DewpointF,PressureIn,WindDirection,WindDirectionDegrees,WindSpeedMPH,WindSpeedGustMPH,Humidity,HourlyPrecipIn,Conditions,Clouds,dailyrainin,SoftwareType,DateUTC
2013-03-24 00:23:00,38.0,-99.9,29.96,North,-999,-999.0,-999.0,-999,-99.99,,,-99.99,,2013-03-24 04:23:00,
2013-03-24 00:33:00,38.0,-99.9,29.96,North,-999,-999.0,-999.0,-999,-99.99,,,-99.99,,2013-03-24 04:33:00,
2013-03-24 00:43:00,38.0,-99.9,29.96,North,-999,-999.0,-999.0,-999,-99.99,,,-99.99,,2013-03-24 04:43:00,
2013-03-24 00:52:00,37.0,-99.9,29.98,North,-999,-999.0,-999.0,-999,-99.99,,,-99.99,,2013-03-24 04:52:00,
2013-03-24 01:23:00,37.0,-99.9,29.98,North,-999,-999.0,-999.0,-999,-99.99,,,-99.99,,2013-03-24 05:23:00,
2013-03-24 01:33:00,37.0,-99.9,29.98,North,-999,-999.0,-999.0,-999,-99.99,,,-99.99,,2013-03-24 05:33:00,
2013-03-24 01:43:00,37.0,-99.9,29.98,North,-999,-999.0,-999.0,-999,-99.99,,,-99.99,,2013-03-24 05:43:00,
2013-03-24 01:52:00,36.0,-99.9,29.97,North,-999,-999.0,-999.0,-999,-99.99,,,-99.99,,2013-03-24 05:52:00,
2013-03-24 02:22:00,36.0,-99.9,29.97,North,-999,-999.0,-999.0,-999,-99.99,,,-99.99,,2013-03-24 06:22:00,
2013-03-24 02:32:00,36.0,-99.9,29.97,North,-999,-999.0,-999.0,-999,-99.99,,,-99.99,,2013-03-24 06:32:00,
2013-03-24 02:43:00,36.0,-99.9,29.97,North,-999,-999.0,-999.0,-999,-99.99,,,-99.99,,2013-03-24 06:43:00,
2013-03-24 02:52:00,35.0,-99.9,29.98,North,-999,-999.0,-999.0,-999,-99.99,,,-99.99,,2013-03-24 06:52:00,
2013-03-24 03:22:00,35.0,-99.9,29.98,North,-999,-999.0,-999.0,-999,-99.99,,,-99.99,,2013-03-24 07:22:00,
2013-03-24 03:32:00,35.0,-99.9,29.98,North,-999,-999.0,-999.0,-999,-99.99,,,-99.99,,2013-03-24 07:32:00,
2013-03-24 03:42:00,35.0,-99.9,29.98,North,-999,-999.0,-999.0,-999,-99.99,,,-99.99,,2013-03-24 07:42:00,
2013-03-24 03:52:00,35.0,-99.9,29.97,North,-999,-999.0,-999.0,-999,-99.99,,,-99.99,,2013-03-24 07:52:00,
2013-03-24 04:22:00,35.0,-99.9,29.97,North,-999,-999.0,-999.0,-999,-99.99,,,-99.99,,2013-03-24 08:22:00,
2013-03-24 04:32:00,35.0,-99.9,29.97,North,-999,-999.0,-999.0,-999,-99.99,,,-99.99,,2013-03-24 08:32:00,
2013-03-24 04:42:00,35.0,-99.9,29.97,North,-999,-999.0,-999.0,-999,-99.99,,,-99.99,,2013-03-24 08:42:00,
2013-03-24 04:52:00,34.0,-99.9,29.98,North,-999,-999.0,-999.0,-999,-99.99,,,-99.99,,2013-03-24 08:52:00,
2013-03-24 05:22:00,34.0,-99.9,29.98,North,-999,-999.0,-999.0,-999,-99.99,,,-99.99,,2013-03-24 09:22:00,
2013-03-24 05:33:00,34.0,-99.9,29.98,North,-999,-999.0,-999.0,-999,-99.99,,,-99.99,,2013-03-24 09:33:00,
2013-03-24 05:43:00,34.0,-99.9,29.98,North,-999,-999.0,-999.0,-999,-99.99,,,-99.99,,2013-03-24 09:43:00,
2013-03-24 05:52:00,33.0,-99.9,30.00,North,-999,-999.0,-999.0,-999,-99.99,,,-99.99,,2013-03-24 09:52:00,
2013-03-24 06:23:00,33.0,-99.9,30.00,North,-999,-999.0,-999.0,-999,-99.99,,,-99.99,,2013-03-24 10:23:00,
2013-03-24 06:33:00,33.0,-99.9,30.00,North,-999,-999.0,-999.0,-999,-99.99,,,-99.99,,2013-03-24 10:33:00,
2013-03-24 06:42:00,33.0,-99.9,30.00,North,-999,-999.0,-999.0,-999,-99.99,,,-99.99,,2013-03-24 10:42:00,
2013-03-24 06:52:00,32.0,-99.9,29.98,North,-999,-999.0,-999.0,-999,-99.99,,,-99.99,,2013-03-24 10:52:00,
2013-03-24 07:33:00,32.0,-99.9,29.98,North,-999,-999.0,-999.0,-999,-99.99,,,-99.99,,2013-03-24 11:33:00,
2013-03-24 07:43:00,32.0,-99.9,29.98,North,-999,-999.0,-999.0,-999,-99.99,,,-99.99,,2013-03-24 11:43:00,
2013-03-24 07:52:00,33.0,-99.9,29.98,North,-999,-999.0,-999.0,-999,-99.99,,,-99.99,,2013-03-24 11:52:00,
2013-03-24 08:33:00,33.0,-99.9,29.98,North,-999,-999.0,-999.0,-999,-99.99,,,-99.99,,2013-03-24 12:33:00,
2013-03-24 08:42:00,33.0,-99.9,29.98,North,-999,-999.0,-999.0,-999,-99.99,,,-99.99,,2013-03-24 12:42:00,
2013-03-24 08:52:00,36.0,-99.9,29.98,North,-999,-999.0,-999.0,-999,-99.99,,,-99.99,,2013-03-24 12:52:00,
2013-03-24 09:23:00,36.0,-99.9,29.98,North,-999,-999.0,-999.0,-999,-99.99,,,-99.99,,2013-03-24 13:23:00,
2013-03-24 09:33:00,36.0,-99.9,29.98,North,-999,-999.0,-999.0,-999,-99.99,,,-99.99,,2013-03-24 13:33:00,
2013-03-24 09:43:00,36.0,-99.9,29.98,North,-999,-999.0,-999.0,-999,-99.99,,,-99.99,,2013-03-24 13:43:00,
2013-03-24 10:52:00,40.0,-99.9,29.92,North,-999,-999.0,-999.0,-999,-99.99,,,-99.99,,2013-03-24 14:52:00,
2013-03-24 11:33:00,40.0,-99.9,29.92,North,-999,-999.0,-999.0,-999,-99.99,,,-99.99,,2013-03-24 15:33:00,
2013-03-24 11:43:00,40.0,-99.9,29.92,North,-999,-999.0,-999.0,-999,-99.99,,,-99.99,,2013-03-24 15:43:00,
2013-03-24 11:52:00,41.0,-99.9,29.89,North,-999,-999.0,-999.0,-999,-99.99,,,-99.99,,2013-03-24 15:52:00,
2013-03-24 12:23:00,41.0,-99.9,29.89,North,-999,-999.0,-999.0,-999,-99.99,,,-99.99,,2013-03-24 16:23:00,
2013-03-24 12:33:00,41.0,-99.9,29.89,North,-999,-999.0,-999.0,-999,-99.99,,,-99.99,,2013-03-24 16:33:00,
2013-03-24 12:43:00,41.0,-99.9,29.89,North,-999,-999.0,-999.0,-999,-99.99,,,-99.99,,2013-03-24 16:43:00,
2013-03-24 12:52:00,42.0,-99.9,29.87,North,-999,-999.0,-999.0,-999,-99.99,,,-99.99,,2013-03-24 16:52:00,
2013-03-24 13:23:00,42.0,-99.9,29.87,North,-999,-999.0,-999.0,-999,-99.99,,,-99.99,,2013-03-24 17:23:00,
2013-03-24 13:33:00,42.0,-99.9,29.87,North,-999,-999.0,-999.0,-999,-99.99,,,-99.99,,2013-03-24 17:33:00,
2013-03-24 13:43:00,42.0,-99.9,29.87,North,-999,-999.0,-999.0,-999,-99.99,,,-99.99,,2013-03-24 17:43:00,
2013-03-24 13:52:00,39.0,-99.9,29.82,North,-999,-999.0,-999.0,-999,-99.99,,,-99.99,,2013-03-24 17:52:00,
2013-03-24 14:22:00,39.0,-99.9,29.82,North,-999,-999.0,-999.0,-999,-99.99,,,-99.99,,2013-03-24 18:22:00,
2013-03-24 14:33:00,39.0,-99.9,29.82,North,-999,-999.0,-999.0,-999,-99.99,,,-99.99,,2013-03-24 18:33:00,
2013-03-24 14:43:00,39.0,-99.9,29.82,North,-999,-999.0,-999.0,-999,-99.99,,,-99.99,,2013-03-24 18:43:00,
2013-03-24 14:52:00,39.0,-99.9,29.79,North,-999,-999.0,-999.0,-999,-99.99,,,-99.99,,2013-03-24 18:52:00,
2013-03-24 15:23:00,39.0,-99.9,29.79,North,-999,-999.0,-999.0,-999,-99.99,,,-99.99,,2013-03-24 19:23:00,
2013-03-24 15:33:00,39.0,-99.9,29.79,North,-999,-999.0,-999.0,-999,-99.99,,,-99.99,,2013-03-24 19:33:00,
2013-03-24 15:43:00,39.0,-99.9,29.79,North,-999,-999.0,-999.0,-999,-99.99,,,-99.99,,2013-03-24 19:43:00,
2013-03-24 15:52:00,38.0,-99.9,29.77,North,-999,-999.0,-999.0,-999,-99.99,,,-99.99,,2013-03-24 19:52:00,
2013-03-24 16:22:00,38.0,-99.9,29.77,North,-999,-999.0,-999.0,-999,-99.99,,,-99.99,,2013-03-24 20:22:00,
2013-03-24 16:33:00,38.0,-99.9,29.77,North,-999,-999.0,-999.0,-999,-99.99,,,-99.99,,2013-03-24 20:33:00,
2013-03-24 16:43:00,38.0,-99.9,29.77,North,-999,-999.0,-999.0,-999,-99.99,,,-99.99,,2013-03-24 20:43:00,
2013-03-24 16:52:00,38.0,-99.9,29.74,North,-999,-999.0,-999.0,-999,-99.99,,,-99.99,,2013-03-24 20:52:00,
2013-03-24 17:23:00,38.0,-99.9,29.74,North,-999,-999.0,-999.0,-999,-99.99,,,-99.99,,2013-03-24 21:23:00,
2013-03-24 17:33:00,38.0,-99.9,29.74,North,-999,-999.0,-999.0,-999,-99.99,,,-99.99,,2013-03-24 21:33:00,
2013-03-24 17:43:00,38.0,-99.9,29.74,North,-999,-999.0,-999.0,-999,-99.99,,,-99.99,,2013-03-24 21:43:00,
2013-03-24 17:52:00,38.0,-99.9,29.73,North,-999,-999.0,-999.0,-999,-99.99,,,-99.99,,2013-03-24 21:52:00,
2013-03-24 18:23:00,38.0,-99.9,29.73,North,-999,-999.0,-999.0,-999,-99.99,,,-99.99,,2013-03-24 22:23:00,
2013-03-24 18:33:00,38.0,-99.9,29.73,North,-999,-999.0,-999.0,-999,-99.99,,,-99.99,,2013-03-24 22:33:00,
2013-03-24 18:43:00,38.0,-99.9,29.73,North,-999,-999.0,-999.0,-999,-99.99,,,-99.99,,2013-03-24 22:43:00,
2013-03-24 18:52:00,38.0,-99.9,29.75,North,-999,-999.0,-999.0,-999,-99.99,,,-99.99,,2013-03-24 22:52:00,
2013-03-24 19:23:00,38.0,-99.9,29.75,North,-999,-999.0,-999.0,-999,-99.99,,,-99.99,,2013-03-24 23:23:00,
2013-03-24 19:32:00,38.0,-99.9,29.75,North,-999,-999.0,-999.0,-999,-99.99,,,-99.99,,2013-03-24 23:32:00,
2013-03-24 19:43:00,38.0,-99.9,29.75,North,-999,-999.0,-999.0,-999,-99.99,,,-99.99,,2013-03-24 23:43:00,
2013-03-24 19:52:00,38.0,-99.9,29.78,North,-999,-999.0,-999.0,-999,-99.99,,,-99.99,,2013-03-24 23:52:00,
2013-03-24 20:23:00,38.0,-99.9,29.78,North,-999,-999.0,-999.0,-999,-99.99,,,-99.99,,2013-03-25 00:23:00,
2013-03-24 20:33:00,38.0,-99.9,29.78,North,-999,-999.0,-999.0,-999,-99.99,,,-99.99,,2013-03-25 00:33:00,
2013-03-24 20:43:00,38.0,-99.9,29.78,North,-999,-999.0,-999.0,-999,-99.99,,,-99.99,,2013-03-25 00:43:00,
2013-03-24 20:52:00,38.0,-99.9,29.78,North,-999,-999.0,-999.0,-999,-99.99,,,-99.99,,2013-03-25 00:52:00,
2013-03-24 21:22:00,38.0,-99.9,29.78,North,-999,-999.0,-999.0,-999,-99.99,,,-99.99,,2013-03-25 01:22:00,
2013-03-24 21:32:00,38.0,-99.9,29.78,North,-999,-999.0,-999.0,-999,-99.99,,,-99.99,,2013-03-25 01:32:00,
2013-03-24 21:42:00,38.0,-99.9,29.78,North,-999,-999.0,-999.0,-999,-99.99,,,-99.99,,2013-03-25 01:42:00,
2013-03-24 21:52:00,38.0,-99.9,29.77,North,-999,-999.0,-999.0,-999,-99.99,,,-99.99,,2013-03-25 01:52:00,
2013-03-24 22:33:00,38.0,-99.9,29.77,North,-999,-999.0,-999.0,-999,-99.99,,,-99.99,,2013-03-25 02:33:00,
2013-03-24 22:43:00,38.0,-99.9,29.77,North,-999,-999.0,-999.0,-999,-99.99,,,-99.99,,2013-03-25 02:43:00,
2013-03-24 22:52:00,38.0,-99.9,29.73,North,-999,-999.0,-999.0,-999,-99.99,,,-99.99,,2013-03-25 02:52:00,
2013-03-24 23:34:00,38.0,-99.9,29.73,North,-999,-999.0,-999.0,-999,-99.99,,,-99.99,,2013-03-25 03:34:00,
2013-03-24 23:43:00,38.0,-99.9,29.73,North,-999,-999.0,-999.0,-999,-99.99,,,-99.99,,2013-03-25 03:43:00,
2013-03-24 23:52:00,38.0,-99.9,29.68,North,-999,-999.0,-999.0,-999,-99.99,,,-99.99,,2013-03-25 03:52:00,